KC5KKT Weather Reports


Display with metric or nautical units.
time (UTC)temp
F
wind
direction
speed
MPH
gust
MPH
rain 1hr
in
rain 24hr
in
rain mn
in
humidity
%
barometer
mb
20260506190038 60 32 7.0 17.0 0.00 0.00 0.00 72 1014.4
20260506184549 60 9 10.0 20.0 0.00 0.00 0.00 70 1014.0
20260506183040 59 19 12.0 21.0 0.00 0.00 0.00 71 1014.2
20260506181540 59 328 13.0 20.0 0.00 0.00 0.00 74 1014.2
20260506180038 58 20 12.0 21.0 0.00 0.00 0.00 75 1014.5
20260506174537 58 23 10.0 20.0 0.00 0.00 0.00 73 1014.8
20260506173059 57 35 11.0 20.0 0.00 0.00 0.00 76 1015.4
20260506171550 56 348 9.0 18.0 0.00 0.00 0.00 77 1015.3
20260506170039 56 18 13.0 19.0 0.00 0.00 0.00 75 1015.1
20260506164538 55 22 10.0 20.0 0.00 0.00 0.00 77 1015.3
20260506163052 54 18 12.0 18.0 0.00 0.00 0.00 77 1015.5
20260506161542 54 33 8.0 13.0 0.00 0.00 0.00 78 1015.7
20260506160038 53 23 6.0 9.0 0.00 0.00 0.00 79 1016.2
20260506154547 53 48 2.0 14.0 0.00 0.00 0.00 79 1016.7
20260506153040 53 328 9.0 19.0 0.00 0.00 0.00 79 1015.8
20260506151544 53 19 10.0 16.0 0.00 0.00 0.00 79 1015.4
20260506150042 53 358 9.0 18.0 0.00 0.00 0.00 79 1015.4
20260506144539 53 31 7.0 14.0 0.00 0.00 0.00 80 1015.6
20260506143038 52 33 9.0 12.0 0.00 0.00 0.00 80 1015.4
20260506141536 52 25 10.0 17.0 0.00 0.00 0.00 80 1015.3
20260506140047 52 351 6.0 16.0 0.00 0.00 0.00 81 1014.5
20260506134539 52 13 9.0 18.0 0.00 0.00 0.00 80 1014.4
20260506133039 52 351 10.0 18.0 0.00 0.00 0.00 81 1014.3
20260506131538 52 26 12.0 18.0 0.00 0.00 0.00 81 1014.0
20260506130038 52 37 10.0 16.0 0.00 0.00 0.00 82 1013.8
20260506124539 51 37 9.0 20.0 0.00 0.00 0.00 83 1013.6
20260506123044 51 36 10.0 17.0 0.00 0.00 0.00 84 1013.7
20260506121541 51 28 12.0 18.0 0.00 0.00 0.00 85 1013.6
20260506120040 51 8 13.0 22.0 0.00 0.00 0.00 85 1013.6
20260506114540 51 14 12.0 18.0 0.00 0.00 0.00 86 1013.2
20260506113038 50 25 11.0 18.0 0.00 0.00 0.00 87 1013.0
20260506111541 50 30 14.0 22.0 0.00 0.00 0.00 87 1012.9
20260506110041 51 358 13.0 19.0 0.00 0.00 0.00 86 1012.8
20260506104543 51 342 11.0 21.0 0.00 0.00 0.00 85 1012.9
20260506103038 51 13 11.0 18.0 0.00 0.00 0.00 85 1012.7
20260506101538 51 333 11.0 18.0 0.00 0.00 0.00 85 1012.2
20260506100047 51 347 13.0 19.0 0.00 0.00 0.00 84 1012.1
20260506094545 52 20 9.0 20.0 0.00 0.00 0.00 83 1011.9
20260506093101 52 15 11.0 17.0 0.00 0.00 0.00 82 1011.6
20260506091535 52 338 8.0 17.0 0.00 0.00 0.00 81 1011.4
20260506090040 53 338 9.0 14.0 0.00 0.00 0.00 81 1011.2
20260506084537 53 20 9.0 15.0 0.00 0.00 0.00 80 1011.0
20260506083045 53 13 8.0 12.0 0.00 0.00 0.00 79 1011.1
20260506081540 53 324 8.0 14.0 0.00 0.00 0.00 80 1010.9
20260506073039 54 359 10.0 16.0 0.00 0.00 0.00 79 1010.9
20260506071537 54 353 11.0 16.0 0.00 0.00 0.00 79 1010.5
20260506061552 54 41 10.0 16.0 0.00 0.00 0.00 80 1010.5
20260506044543 55 320 8.0 15.0 0.00 0.00 0.00 81 1010.7
20260506043039 55 356 10.0 18.0 0.00 0.00 0.00 81 1010.7
20260506041542 56 330 9.0 15.0 0.00 0.00 0.00 82 1010.6
20260506040040 56 28 12.0 20.0 0.00 0.00 0.00 82 1010.3
20260506034536 57 21 13.0 19.0 0.00 0.00 0.00 82 1010.6
20260506033049 57 5 13.0 18.0 0.00 0.00 0.00 82 1010.4
20260506031542 57 5 9.0 17.0 0.00 0.00 0.00 83 1010.1
20260506030040 57 19 9.0 15.0 0.00 0.00 0.00 84 1010.1
20260506024537 58 2 9.0 18.0 0.00 0.00 0.00 84 1009.8
20260506023049 58 4 9.0 21.0 0.00 0.00 0.00 85 1009.4
20260506021540 58 343 14.0 20.0 0.00 0.00 0.00 84 1008.6
20260506020108 59 10 13.0 21.0 0.00 0.00 0.00 84 1007.7
20260506014534 59 348 13.0 20.0 0.00 0.00 0.00 84 1007.7
20260506013034 60 330 13.0 20.0 0.00 0.00 0.00 84 1007.4
20260506011541 61 18 10.0 20.0 0.00 0.00 0.00 84 1007.1
20260506010040 62 345 13.0 20.0 0.00 0.00 0.00 82 1006.4
20260506004542 63 337 13.0 19.0 0.00 0.00 0.00 81 1006.8
20260506003035 64 349 12.0 19.0 0.00 0.00 0.00 80 1006.5
20260506001544 66 3 13.0 19.0 0.00 0.00 0.00 79 1006.1
20260506000056 67 317 9.0 14.0 0.00 0.00 0.00 79 1006.1
20260505234542 67 324 8.0 14.0 0.00 0.00 0.00 78 1006.5
20260505233034 68 304 8.0 19.0 0.00 0.00 0.00 78 1006.0
20260505231538 69 326 7.0 17.0 0.00 0.00 0.00 76 1005.9
20260505230049 70 318 5.0 15.0 0.00 0.00 0.00 75 1006.1
20260505224546 71 343 5.0 13.0 0.00 0.00 0.00 75 1006.0
20260505223039 72 342 4.0 12.0 0.00 0.00 0.00 74 1005.7
20260505221547 72 352 7.0 14.0 0.00 0.00 0.00 73 1005.3
20260505220058 73 295 7.0 16.0 0.00 0.00 0.00 73 1005.0
20260505214546 75 306 6.0 14.0 0.00 0.00 0.00 70 1005.0
20260505213039 77 326 4.0 11.0 0.00 0.00 0.00 68 1004.7
20260505211604 77 303 3.0 13.0 0.00 0.00 0.00 68 1005.0
20260505210043 79 302 4.0 10.0 0.00 0.00 0.00 65 1005.1
20260505204555 81 277 5.0 11.0 0.00 0.00 0.00 64 1005.0
20260505203039 83 274 4.0 16.0 0.00 0.00 0.00 60 1004.8
20260505201542 82 255 6.0 15.0 0.00 0.00 0.00 57 1004.7
20260505200039 82 283 8.0 16.0 0.00 0.00 0.00 50 1004.8
20260505194539 81 273 5.0 13.0 0.00 0.00 0.00 52 1004.6
20260505193044 82 265 4.0 20.0 0.00 0.00 0.00 50 1004.6
20260505191537 83 224 12.0 24.0 0.00 0.00 0.00 63 1004.4